User: anonymous   Login
Location: Unspecified
(0.0000°N, 0.0000°E)
Time: 19:51:41
(UTC+00:00)
Language:

DOVE 2 - Orbit

View from above orbital plane
View from above orbital plane
View from above satellite
View from above satellite

Ground track
Ground track

The orbit data is extracted from the following two-line orbital elements,

1 39132U 13015C   17269.46829085  .00000343  00000-0  34857-4 0  9996
2 39132  64.8753 315.0612 0038276 262.9210  96.7555 15.06693205243754
Epoch (UTC): 26 September 2017 11:14:20
Eccentricity: 0.0038276
inclination: 64.8753°
perigee height: 520 km
apogee height: 573 km
right ascension of ascending node: 315.0612°
argument of perigee: 262.9210°
revolutions per day: 15.06693205
mean anomaly at epoch: 96.7555°
orbit number at epoch: 24375

The dashed part of the orbit path shows where the satellite is in the earth's shadow,  

DLR